STARLINK-5848, 55932

Orbit data source: Space-Track

STARLINK-5848, 55932 is a payload satellite owned by SpaceX/Seattle (US) in LEO that was launched on Fri, 17 Mar 2023 UTC via an FALCON 9 launch vehicle from the Air Force Western Test Range (AFWTR). Payload-class satellites include a variety of spacecraft equipped with specific instruments for various scientific and technological missions. These include communications satellites like Starlink; space stations such as the ISS; scientific satellites like the Hubble; Earth observation satellites from companies like Planet Labs, Umbra, and HawkEye 360; GPS; miniature CubeSats for education and research; and military/defense satellites.

Loading next visibility...
Identifier
55932, 2023-037U
Orbit
LEO
Country
Flag of USUS
Related business
Manufacturer
SpaceX/Seattle
Mission
Operational Commercial Communications
Bus & Motor
STARLINK, Unknown motor
Mass
305 kg wet, ~290 kg dry
Launch date (UTC)
2023-03-17 (3 years ago)
Launch vehicle
FALCON 9
Launch site
Air Force Western Test Range (AFWTR)
Object type
Payload
Rocket body
Debris
Shape & HBR
Box + 1 Pan, 10.1 m
Radar Cross Section
11.087 m², Large (>1 m²)

Expand to show TLE details & history
Last TLE update: 11 hours ago

TLE from 11 hours ago
0 STARLINK-5848
1 55932U 23037U   25349.74416359  .00000109  00000-0  16900-4 0  9991
2 55932  69.9994 115.9230 0003113 277.1488  82.9317 14.98339158151905
Epoch: 2025-12-15T17:51Z
TLE epoch observation values (Epoch: 2025-12-15T17:51:35.734Z)
Latitude
-0.00001°
Longitude
123.38577°
Altitude
574.186 km
Speed
7.574 km/s
True Right ascension
07h 43m 41s
True Declination
0° 00' 00"
Sunlit
Object was in full shadow at epoch
Visualization orbit readout
Latitude
Unknown
Longitude
Unknown
Altitude
Unknown
Speed
Unknown
Apparent Right ascension
Unknown
Apparent Declination
Unknown
Sunlit
N/A
Visualization observer readout
Local Sidereal Time
03:06:50
Azimuth
Unknown
Elevation
Unknown
Doppler factor
Unknown
Orbital elements
Apogee altitude
572.139 km
Perigee altitude
567.813 km
Semi-major axis
6,948.113 km
Eccentricity
0.00031
Inclination
69.9994°
RAAN
115.923°
Arg. of periapsis
277.1488°
True anomaly
82.9671°
Mean anomaly
82.9317°
Eccentric anomaly
82.9494°
Mean motion
3.74751 °/min
Orbital period
96.06 mins
BSTAR
0.0000169
Loading maneuver chart data...
Computing Atmospheric mass density...
Loading historical data...
Loading historical data...
Loading historical data...
Loading historical data...
Loading historical data...
Loading historical data...
Loading historical data...

Documentation

Showing up to 5 results
|